GLO1329 SBCF-SBSP

Flight info

Callsign GLO1329
Flight time N/A
Altitude 36000
Route DOBT1A ANDEM UZ30 ENTIT ORES1B
Aircraft B738/M-SDFGIKLORWXY/LB1

Departure

Time 2026-05-07 13:35
Airport Tancredo Neves International Airport (SBCF)

Arrival

Time N/A
Airport Congonhas–Deputado Freitas Nobre Airport (SBSP)
Time Latitude Longitude Altitude Speed Heading
2026-05-07 13:27 -19.62968 -43.96684 2753 ft 0 kts 50°
2026-05-07 13:30 -19.62973 -43.96690 2754 ft 4 kts 50°
2026-05-07 13:30 -19.63007 -43.96732 2751 ft 4 kts 29°
2026-05-07 13:31 -19.63029 -43.96735 2751 ft 4 kts 328°
2026-05-07 13:31 -19.63044 -43.96723 2753 ft 1 kts 320°
2026-05-07 13:31 -19.63046 -43.96721 2753 ft 0 kts 320°
2026-05-07 13:32 -19.63036 -43.96730 2753 ft 10 kts 320°
2026-05-07 13:32 -19.62975 -43.96785 2752 ft 12 kts 320°
2026-05-07 13:32 -19.62913 -43.96840 2752 ft 11 kts 320°
2026-05-07 13:33 -19.62854 -43.96894 2752 ft 11 kts 318°
2026-05-07 13:33 -19.62794 -43.96958 2753 ft 14 kts 300°
2026-05-07 13:33 -19.62857 -43.97125 2752 ft 13 kts 229°
2026-05-07 13:34 -19.62917 -43.97197 2752 ft 13 kts 226°
2026-05-07 13:34 -19.63007 -43.97212 2755 ft 0 kts 140°
2026-05-07 13:35 -19.63118 -43.97110 2753 ft 57 kts 139°
2026-05-07 13:35 -19.63603 -43.96661 2750 ft 126 kts 139°
2026-05-07 13:35 -19.64412 -43.95910 2751 ft 182 kts 139°
2026-05-07 13:35 -19.65435 -43.94980 3362 ft 188 kts 139°
2026-05-07 13:36 -19.66375 -43.94120 4455 ft 174 kts 137°
2026-05-07 13:36 -19.67446 -43.93537 4778 ft 184 kts 177°
2026-05-07 13:36 -19.68657 -43.94001 5130 ft 203 kts 223°
2026-05-07 13:36 -19.69436 -43.95364 5369 ft 227 kts 253°
2026-05-07 13:37 -19.69842 -43.97046 5567 ft 249 kts 258°
2026-05-07 13:37 -19.70249 -43.98910 5804 ft 270 kts 257°
2026-05-07 13:38 -19.71647 -44.05326 8016 ft 291 kts 257°
2026-05-07 13:38 -19.72115 -44.07427 8751 ft 295 kts 257°
2026-05-07 13:38 -19.72598 -44.09562 9509 ft 299 kts 257°
2026-05-07 13:38 -19.73086 -44.11717 10274 ft 302 kts 257°
2026-05-07 13:39 -19.73594 -44.13959 10559 ft 324 kts 257°
2026-05-07 13:39 -19.74143 -44.16372 10755 ft 346 kts 257°
2026-05-07 13:39 -19.74712 -44.18872 11179 ft 358 kts 257°
2026-05-07 13:39 -19.75304 -44.21458 11902 ft 360 kts 257°
2026-05-07 13:40 -19.75895 -44.24050 12672 ft 362 kts 257°
2026-05-07 13:40 -19.76492 -44.26669 13389 ft 366 kts 257°
2026-05-07 13:40 -19.77092 -44.29306 14070 ft 370 kts 256°
2026-05-07 13:40 -19.77700 -44.31975 14745 ft 374 kts 256°
2026-05-07 13:41 -19.78314 -44.34672 15432 ft 377 kts 256°
2026-05-07 13:41 -19.78932 -44.37392 16129 ft 380 kts 256°
2026-05-07 13:41 -19.79555 -44.40132 16797 ft 383 kts 256°
2026-05-07 13:41 -19.80182 -44.42902 17434 ft 387 kts 256°
2026-05-07 13:42 -19.80809 -44.45697 18057 ft 391 kts 256°
2026-05-07 13:42 -19.81227 -44.47562 18452 ft 393 kts 256°
2026-05-07 13:42 -19.81648 -44.49435 18847 ft 395 kts 256°